TimeCDT,TemperatureF,Dew PointF,Humidity,Sea Level PressureIn,VisibilityMPH,Wind Direction,Wind SpeedMPH,Gust SpeedMPH,PrecipitationIn,Events,Conditions,WindDirDegrees,DateUTC
12:53 AM,39.0,18.0,43,30.02,10.0,ESE,12.7,-,N/A,,Mostly Cloudy,120,2013-03-21 05:53:00
1:53 AM,37.9,18.0,45,29.99,10.0,East,21.9,63.3,N/A,,Mostly Cloudy,80,2013-03-21 06:53:00
2:53 AM,37.9,19.0,47,29.98,10.0,ESE,16.1,-,N/A,,Overcast,110,2013-03-21 07:53:00
3:53 AM,37.0,18.0,46,29.96,10.0,ESE,16.1,21.9,N/A,,Overcast,120,2013-03-21 08:53:00
4:53 AM,36.0,19.0,50,29.92,10.0,ESE,17.3,23.0,N/A,,Overcast,110,2013-03-21 09:53:00
5:53 AM,36.0,18.0,48,29.91,10.0,East,17.3,23.0,N/A,,Overcast,100,2013-03-21 10:53:00
6:53 AM,36.0,18.0,48,29.90,10.0,ESE,18.4,27.6,N/A,,Overcast,110,2013-03-21 11:53:00
7:53 AM,37.0,17.1,44,29.88,10.0,ESE,18.4,29.9,N/A,,Mostly Cloudy,110,2013-03-21 12:53:00
8:53 AM,37.9,17.1,43,29.87,10.0,ESE,21.9,33.4,N/A,,Mostly Cloudy,120,2013-03-21 13:53:00
9:53 AM,41.0,17.1,38,29.85,10.0,ESE,26.5,32.2,N/A,,Mostly Cloudy,110,2013-03-21 14:53:00
10:53 AM,45.0,16.0,31,29.84,10.0,ESE,25.3,33.4,N/A,,Mostly Cloudy,120,2013-03-21 15:53:00
11:53 AM,48.0,18.0,30,29.82,10.0,SE,23.0,32.2,N/A,,Scattered Clouds,130,2013-03-21 16:53:00
12:53 PM,48.9,21.0,33,29.79,10.0,SE,21.9,32.2,N/A,,Scattered Clouds,130,2013-03-21 17:53:00
1:53 PM,48.9,21.0,33,29.77,10.0,SE,26.5,32.2,N/A,,Scattered Clouds,130,2013-03-21 18:53:00
2:53 PM,48.0,21.9,36,29.74,10.0,SE,19.6,33.4,N/A,,Scattered Clouds,130,2013-03-21 19:53:00
3:53 PM,46.9,23.0,39,29.74,10.0,ESE,19.6,-,N/A,,Scattered Clouds,110,2013-03-21 20:53:00
4:53 PM,44.1,21.9,42,29.75,10.0,ESE,19.6,25.3,N/A,,Overcast,110,2013-03-21 21:53:00
5:53 PM,42.1,24.1,49,29.76,10.0,East,20.7,26.5,N/A,,Overcast,100,2013-03-21 22:53:00
6:53 PM,39.9,25.0,55,29.78,10.0,East,17.3,23.0,N/A,,Overcast,90,2013-03-21 23:53:00
7:53 PM,37.0,28.0,70,29.80,10.0,East,16.1,-,N/A,,Overcast,80,2013-03-22 00:53:00
8:33 PM,37.4,28.4,70,29.78,10.0,East,19.6,24.2,N/A,,Overcast,80,2013-03-22 01:33:00
8:53 PM,36.0,28.9,76,29.82,10.0,East,15.0,-,N/A,,Mostly Cloudy,90,2013-03-22 01:53:00
9:32 PM,35.6,30.2,81,29.79,10.0,East,17.3,-,N/A,,Overcast,80,2013-03-22 02:32:00
9:53 PM,35.1,30.0,82,29.81,10.0,East,17.3,-,N/A,,Overcast,80,2013-03-22 02:53:00
10:53 PM,35.1,30.0,82,29.84,10.0,East,13.8,23.0,N/A,,Overcast,80,2013-03-22 03:53:00
11:53 PM,35.1,30.0,82,29.85,9.0,East,12.7,-,N/A,,Overcast,80,2013-03-22 04:53:00